Weather History for Cuernavaca, Mexico

Change the Weather History Date:

Monday, November 5, 2012

  Actual Average Record
Temperature  
Mean Temperature 70 °F -  
Max Temperature 80 °F 80 °F 87 °F (2005)
Min Temperature 60 °F 58 °F 48 °F (2010)
Cooling Degree Days 5    
Growing Degree Days 20 (Base 50)    
Moisture  
Dew Point 54 °F    
Average Humidity 53    
Maximum Humidity 82    
Minimum Humidity 34    
Precipitation  
Precipitation 0.00 in - - ()
Sea Level Pressure  
Sea Level Pressure 30.06 in    
Wind  
Wind Speed 2 mph ()    
Max Wind Speed 5 mph    
Max Gust Speed -    
Visibility 7.1 miles    
Events      
Averages and records for this station are not official NWS values.
T = Trace of Precipitation, MM = Missing Value Source: Averaged Metar Reports

Daily Weather History Graph

Daily Weather History Graph

Search for Another Location

Airport:

Trip Planner

Search our weather history database for the weather conditions in past years. The results will help you decide how hot, cold, wet, or windy it might be!

Date:

Astronomy

Nov. 05, 2012 Rise Set
Actual Time 6:39 AM CST 6:01 PM CST
Civil Twilight 6:16 AM CST 6:24 PM CST
Nautical Twilight 5:50 AM CST 6:50 PM CST
Astronomical Twilight 5:24 AM CST 7:16 PM CST
Moon 11:39 PM CST (11/5) 11:58 AM CST (11/5)
Length of Visible Light 12h 07m
Length of Day
11h 22m
Waning Gibbous, 62% of the Moon is Illuminated
Nov 5
Waning Gibbous
Nov 6
Last Quarter
Nov 13
New
Nov 20
First Quarter
Nov 28
Full

Hourly Weather History & Observations

Time (CST) Temp. Dew Point Humidity Pressure Visibility Wind Dir Wind Speed Gust Speed Precip Events Conditions
5:56 AM 60.8 °F 55.4 °F 82% 30.17 in 5.0 mi NNE 3.5 mph - N/A   Overcast
6:49 AM 60.8 °F 55.4 °F 82% 30.17 in 6.0 mi Calm Calm - N/A   Overcast
7:47 AM 62.6 °F 55.4 °F 77% 30.18 in 7.0 mi West 3.5 mph - N/A   Overcast
8:45 AM 64 °F 52 °F 55% 30.17 in 12 mi West 2.2 mph - -   Partly Cloudy
8:51 AM 64.4 °F 55.4 °F 73% 30.21 in 8.0 mi East 3.5 mph - N/A   Overcast
9:43 AM 69.8 °F 55.4 °F 60% 30.21 in 5.0 mi Calm Calm - N/A   Overcast
10:51 AM 75.2 °F 53.6 °F 47% 30.19 in 6.0 mi East 4.6 mph - N/A   Mostly Cloudy
11:48 AM 73.4 °F 53.6 °F 50% 30.16 in 6.0 mi SW 4.6 mph - N/A   Mostly Cloudy
12:00 PM 79 °F 56 °F 34% 29.91 in 12 mi SSW 2.2 mph - -   Partly Cloudy
12:49 PM 75.2 °F 53.6 °F 47% 30.12 in 6.0 mi SE 4.6 mph - N/A   Mostly Cloudy
1:52 PM 78.8 °F 55.4 °F 44% 30.08 in 6.0 mi SSW 3.5 mph - N/A   Mostly Cloudy
2:43 PM 77.0 °F 53.6 °F 44% 30.06 in 5.0 mi ESE 3.5 mph - N/A   Mostly Cloudy
3:50 PM 78.8 °F 53.6 °F 42% 30.05 in 5.0 mi Calm Calm - N/A   Mostly Cloudy
4:46 PM 77.0 °F 51.8 °F 41% 30.05 in 6.0 mi Calm Calm - N/A   Mostly Cloudy
5:50 PM 73.4 °F 53.6 °F 50% 30.07 in 6.0 mi Calm Calm - N/A   Mostly Cloudy
5:55 PM 73 °F 52 °F 36% 29.70 in 12 mi NNW 2.2 mph - -   Overcast
6:44 PM 71.6 °F 53.6 °F 53% 30.07 in 6.0 mi NNW 3.5 mph - N/A   Mostly Cloudy
8:50 PM 70 °F 51 °F 41% 29.73 in 9 mi Calm Calm - -   Overcast
11:50 PM 68 °F 54 °F 52% 29.80 in 7 mi Calm Calm - -   Overcast